Renton, WA

12:27 AM PDT on May 24, 2017 (GMT -0700)
Renton Municipal

Weather History for KRNT - July, 2013

Change the Weather History Date:

Saturday, July 6, 2013

  Actual Average Record
Temperature  
Mean Temperature 66 °F -  
Max Temperature 79 °F 73 °F 87 °F (2015)
Min Temperature 55 °F 55 °F 48 °F (2010)
Cooling Degree Days 2    
Growing Degree Days 16 (Base 50)    
Moisture  
Dew Point 32 °F    
Average Humidity 29    
Maximum Humidity 41    
Minimum Humidity 18    
Precipitation  
Precipitation 0.00 in - - ()
Sea Level Pressure  
Sea Level Pressure 29.95 in    
Wind  
Wind Speed 4 mph (West)    
Max Wind Speed 13 mph    
Max Gust Speed -    
Visibility 10 miles    
Events      
Averages and records for this station are not official NWS values.
T = Trace of Precipitation, MM = Missing Value Source: NWS Daily Summary

Daily Weather History Graph

Daily Weather History Graph

Search for Another Location

Airport or City:

Trip Planner

Search our weather history database for the weather conditions in past years. The results will help you decide how hot, cold, wet, or windy it might be!

Date:

Astronomy

Jul. 06, 2013 Rise Set
Actual Time 5:19 AM PDT 9:07 PM PDT
Civil Twilight 4:39 AM PDT 9:47 PM PDT
Nautical Twilight 3:45 AM PDT 10:41 PM PDT
Astronomical Twilight 2:25 AM PDT 11:59 PM PDT
Moon 4:13 AM PDT (7/6) 7:48 PM PDT (7/6)
Length of Visible Light 17h 07m
Length of Day
15h 48m
Waning Crescent, 2% of the Moon is Illuminated
Jul 6
Waning Crescent
Jul 8
New
Jul 15
First Quarter
Jul 22
Full
Jul 29
Last Quarter

Hourly Weather History & Observations

Time (PDT) Temp. Dew Point Humidity Pressure Visibility Wind Dir Wind Speed Gust Speed Precip Events Conditions
12:53 AM 60.1 °F 36.0 °F 41% 29.99 in 10.0 mi ESE 3.5 mph - N/A   Mostly Cloudy
1:53 AM 61.0 °F 36.0 °F 39% 29.99 in 10.0 mi SSE 4.6 mph - N/A   Clear
2:53 AM 59.0 °F 35.1 °F 41% 29.99 in 10.0 mi South 4.6 mph - N/A   Clear
3:53 AM 57.9 °F 34.0 °F 41% 29.99 in 10.0 mi Calm Calm - N/A   Clear
4:53 AM 57.0 °F 33.1 °F 40% 29.99 in 10.0 mi Calm Calm - N/A   Clear
5:53 AM 55.9 °F 30.9 °F 39% 29.99 in 9.0 mi Calm Calm - N/A   Clear
6:43 AM 57.2 °F 32.0 °F 38% 29.98 in 10.0 mi SSE 3.5 mph - N/A   Partly Cloudy
6:53 AM 57.9 °F 32.0 °F 37% 30.00 in 10.0 mi South 4.6 mph - N/A   Mostly Cloudy
7:53 AM 57.9 °F 32.0 °F 37% 30.01 in 9.0 mi Variable 4.6 mph - N/A   Overcast
8:46 AM 59.0 °F 30.2 °F 34% 29.99 in 9.0 mi South 4.6 mph - N/A   Overcast
8:53 AM 60.1 °F 30.9 °F 33% 30.00 in 9.0 mi South 4.6 mph - N/A   Overcast
9:53 AM 62.1 °F 30.9 °F 31% 30.00 in 10.0 mi Calm Calm - N/A   Mostly Cloudy
10:53 AM 66.9 °F 30.9 °F 26% 29.98 in 10.0 mi Calm Calm - N/A   Mostly Cloudy
11:00 AM 68.0 °F 30.2 °F 24% 29.97 in 10.0 mi NNW 4.6 mph - N/A   Clear
11:53 AM 70.0 °F 30.9 °F 24% 29.97 in 10.0 mi Variable 4.6 mph - N/A   Clear
12:53 PM 73.0 °F 30.9 °F 21% 29.96 in 10.0 mi NW 5.8 mph - N/A   Clear
1:53 PM 75.0 °F 30.9 °F 20% 29.95 in 10.0 mi NW 6.9 mph - N/A   Clear
2:53 PM 75.9 °F 30.9 °F 19% 29.93 in 10.0 mi NW 6.9 mph - N/A   Clear
3:53 PM 75.9 °F 30.9 °F 19% 29.91 in 10.0 mi NW 5.8 mph - N/A   Clear
4:53 PM 78.1 °F 30.9 °F 18% 29.90 in 10.0 mi WNW 9.2 mph - N/A   Clear
5:53 PM 78.1 °F 30.9 °F 18% 29.89 in 10.0 mi NW 12.7 mph - N/A   Clear
6:53 PM 77.0 °F 30.9 °F 19% 29.88 in 10.0 mi NW 9.2 mph - N/A   Clear
7:53 PM 75.9 °F 30.9 °F 19% 29.88 in 10.0 mi NW 8.1 mph - N/A   Clear
8:53 PM 73.0 °F 30.9 °F 21% 29.89 in 10.0 mi WNW 4.6 mph - N/A   Clear
9:53 PM 70.0 °F 30.9 °F 24% 29.90 in 10.0 mi Calm Calm - N/A   Clear
10:53 PM 69.1 °F 30.0 °F 23% 29.91 in 10.0 mi Calm Calm - N/A   Clear
11:53 PM 66.9 °F 30.9 °F 26% 29.91 in 10.0 mi Calm Calm - N/A   Partly Cloudy